Overview Statistics Trail Chart Weather Telemetry Raw packets
 

This is the latest recevied weather packets stored in our database for station/object EA4URC-13. If no packets are shown the sender has not sent any weather packets the latest 10 day(s).

<< 33 34 35 36 37 38 39 >>
Time Temp. Humidity Pressure Rain* Wind** Luminosity Snow
1787874460 19.44° C 41% 1023.1 hPa - - - -
1787873559 19.44° C 39% 1023.1 hPa - - - -
1787872659 20° C 39% 1022.9 hPa - - - -
1787871759 20° C 39% 1022.8 hPa - - - -
1787870859 20° C 39% 1022.8 hPa - - - -
1787869962 20° C 38% 1022.5 hPa - - - -
1787869059 20.56° C 37% 1022.6 hPa - - - -
1787868162 21.11° C 35% 1022.7 hPa - - - -
1787867259 21.67° C 35% 1022.7 hPa - - - -
1787866362 21.11° C 35% 1022.5 hPa - - - -
1787865459 21.11° C 33% 1022.2 hPa - - - -
1787864559 21.67° C 33% 1022.1 hPa - - - -
1787863659 21.11° C 33% 1021.9 hPa - - - -
1787862758 21.67° C 32% 1021.9 hPa - - - -
1787861858 21.11° C 33% 1021.6 hPa - - - -
1787860958 21.67° C 33% 1021.5 hPa - - - -
1787860058 21.11° C 33% 1021.2 hPa - - - -
1787859158 22.22° C 31% 1021.2 hPa - - - -
1787858258 22.22° C 31% 1020.9 hPa - - - -
1787857358 22.78° C 30% 1020.6 hPa - - - -
1787856458 22.78° C 31% 1020.5 hPa - - - -
1787855562 22.22° C 31% 1020.4 hPa - - - -
1787854659 23.33° C 30% 1020.4 hPa - - - -
1787853759 23.33° C 29% 1020.3 hPa - - - -
1787852859 22.78° C 28% 1020.5 hPa - - - -

* Rain since midnight (hover to see other rain measurements)
** Current wind speed in m/s (hover to see current wind gust speed)